When you browse on this site, cookies collect data to enhance your experience and personalize the content and advertising you see.
Visit our Privacy Policy to learn more. By continuing to use the site, you agree to this use of cookies and data.
  • In Spain
  • List of Countries
  • For 7 days
  • Water Temperature
  • Weather Map
  • Weather Widgets
  • user-avatar
    Login

    Hourly Weather Zhezqazghan

    Today, 20 September, Friday

    Time Temperature Precipitation Wind Pressure Humidity
    00:00 +21°C° 0 mm 3 mps 745 mmHg 31%
    01:00 +21°C° 0 mm 3 mps 745 mmHg 32%
    02:00 +21°C° 0 mm 4 mps 745 mmHg 33%
    03:00 +21°C° 0 mm 4 mps 745 mmHg 33%
    04:00 +21°C° 0 mm 4 mps 745 mmHg 33%
    05:00 +22°C° 0 mm 4 mps 745 mmHg 31%
    06:00 +23°C° 0 mm 5 mps 745 mmHg 29%
    07:00 +26°C° 0 mm 5 mps 745 mmHg 27%
    08:00 +28°C° 0 mm 5 mps 746 mmHg 24%
    09:00 +30°C° 0 mm 4 mps 746 mmHg 21%
    10:00 +33°C° 0 mm 4 mps 746 mmHg 18%
    11:00 +33°C° 0 mm 4 mps 745 mmHg 16%
    12:00 +34°C° 0 mm 5 mps 745 mmHg 15%
    13:00 +35°C° 0 mm 5 mps 744 mmHg 14%
    14:00 +35°C° 0 mm 6 mps 744 mmHg 15%
    15:00 +34°C° 0 mm 7 mps 744 mmHg 15%
    16:00 +33°C° 0 mm 8 mps 744 mmHg 16%
    17:00 +30°C° 0 mm 7 mps 744 mmHg 19%
    18:00 +29°C° 0 mm 6 mps 744 mmHg 22%
    19:00 +27°C° 0 mm 6 mps 744 mmHg 24%
    20:00 +26°C° 0 mm 6 mps 744 mmHg 26%
    21:00 +26°C° 0 mm 6 mps 744 mmHg 27%
    22:00 +24°C° 0 mm 6 mps 744 mmHg 28%
    23:00 +24°C° 0 mm 7 mps 743 mmHg 28%

    Tomorrow, 21 September, Saturday

    Time Temperature Precipitation Wind Pressure Humidity
    00:00 +24°C° 0 mm 7 mps 743 mmHg 29%
    01:00 +24°C° 0 mm 8 mps 743 mmHg 29%
    02:00 +24°C° 0 mm 8 mps 743 mmHg 29%
    03:00 +24°C° 0 mm 8 mps 743 mmHg 29%
    04:00 +24°C° 0 mm 8 mps 743 mmHg 29%
    05:00 +26°C° 0 mm 8 mps 743 mmHg 27%
    06:00 +27°C° 0 mm 8 mps 743 mmHg 25%
    07:00 +28°C° 0 mm 7 mps 742 mmHg 23%
    08:00 +30°C° 0 mm 6 mps 742 mmHg 20%
    09:00 +33°C° 0 mm 5 mps 742 mmHg 17%
    10:00 +35°C° 0 mm 4 mps 741 mmHg 13%
    11:00 +36°C° 0 mm 3 mps 741 mmHg 13%
    12:00 +37°C° 0 mm 3 mps 740 mmHg 12%
    13:00 +38°C° 0 mm 2 mps 739 mmHg 11%
    14:00 +38°C° 0 mm 2 mps 739 mmHg 11%
    15:00 +38°C° 0 mm 2 mps 739 mmHg 11%
    16:00 +38°C° 0 mm 2 mps 738 mmHg 10%
    17:00 +35°C° 0 mm 2 mps 738 mmHg 13%
    18:00 +31°C° 0 mm 3 mps 738 mmHg 16%
    19:00 +28°C° 0 mm 3 mps 737 mmHg 18%
    20:00 +27°C° 0 mm 3 mps 737 mmHg 19%
    21:00 +26°C° 0 mm 2 mps 736 mmHg 19%
    22:00 +25°C° 0 mm 2 mps 736 mmHg 20%
    23:00 +24°C° 0 mm 2 mps 736 mmHg 21%

    Day after tomorrow, 22 September, Sunday

    Time Temperature Precipitation Wind Pressure Humidity
    00:00 +24°C° 0 mm 2 mps 736 mmHg 22%
    01:00 +23°C° 0 mm 2 mps 736 mmHg 24%
    02:00 +22°C° 0 mm 3 mps 736 mmHg 23%
    03:00 +23°C° 0 mm 4 mps 736 mmHg 21%
    04:00 +23°C° 0 mm 5 mps 736 mmHg 20%
    05:00 +25°C° 0 mm 5 mps 736 mmHg 19%
    06:00 +26°C° 0 mm 6 mps 736 mmHg 17%
    07:00 +27°C° 0 mm 7 mps 736 mmHg 16%
    08:00 +30°C° 0 mm 7 mps 736 mmHg 14%
    09:00 +34°C° 0 mm 8 mps 736 mmHg 12%
    10:00 +37°C° 0 mm 8 mps 736 mmHg 11%
    11:00 +39°C° 0 mm 9 mps 736 mmHg 10%
    12:00 +42°C° 0 mm 10 mps 736 mmHg 9%
    13:00 +43°C° 0 mm 11 mps 735 mmHg 8%
    14:00 +38°C° 0 mm 11 mps 736 mmHg 18%
    15:00 +33°C° 0 mm 12 mps 737 mmHg 27%
    16:00 +27°C° 0 mm 12 mps 738 mmHg 37%
    17:00 +26°C° 0 mm 10 mps 739 mmHg 39%
    18:00 +23°C° 0 mm 9 mps 740 mmHg 41%
    19:00 +22°C° 0 mm 7 mps 741 mmHg 44%
    20:00 +20°C° 0 mm 7 mps 742 mmHg 43%
    21:00 +18°C° 0 mm 7 mps 743 mmHg 41%
    22:00 +17°C° 0 mm 7 mps 744 mmHg 40%
    23:00 +15°C° 0 mm 6 mps 745 mmHg 42%

    23 September, Monday

    Time Temperature Precipitation Wind Pressure Humidity
    00:00 +14°C° 0 mm 4 mps 746 mmHg 43%
    01:00 +13°C° 0 mm 3 mps 747 mmHg 44%
    02:00 +12°C° 0 mm 3 mps 747 mmHg 47%
    03:00 +10°C° 0 mm 2 mps 748 mmHg 50%
    04:00 +10°C° 0 mm 1 mps 748 mmHg 53%
    05:00 +12°C° 0 mm 1 mps 749 mmHg 48%
    06:00 +14°C° 0 mm 1 mps 749 mmHg 42%
    07:00 +15°C° 0 mm 1 mps 749 mmHg 37%
    08:00 +18°C° 0 mm 1 mps 749 mmHg 32%
    09:00 +20°C° 0 mm 1 mps 749 mmHg 28%
    10:00 +21°C° 0 mm 1 mps 750 mmHg 24%
    11:00 +22°C° 0 mm 1 mps 749 mmHg 22%
    12:00 +23°C° 0 mm 2 mps 748 mmHg 19%
    13:00 +24°C° 0 mm 2 mps 748 mmHg 17%
    14:00 +24°C° 0 mm 2 mps 747 mmHg 17%
    15:00 +24°C° 0 mm 2 mps 747 mmHg 17%
    16:00 +24°C° 0 mm 2 mps 746 mmHg 17%
    17:00 +21°C° 0 mm 2 mps 746 mmHg 22%
    18:00 +18°C° 0 mm 2 mps 746 mmHg 27%
    19:00 +15°C° 0 mm 2 mps 746 mmHg 32%
    20:00 +14°C° 0 mm 1 mps 746 mmHg 36%
    21:00 +14°C° 0 mm 1 mps 746 mmHg 40%
    22:00 +12°C° 0 mm 0 mps 746 mmHg 44%
    23:00 +13°C° 0 mm 1 mps 746 mmHg 43%

    24 September, Tuesday

    Time Temperature Precipitation Wind Pressure Humidity
    00:00 +13°C° 0 mm 1 mps 746 mmHg 42%
    01:00 +13°C° 0 mm 2 mps 746 mmHg 41%
    02:00 +12°C° 0 mm 2 mps 746 mmHg 42%
    03:00 +12°C° 0 mm 2 mps 746 mmHg 42%
    04:00 +12°C° 0 mm 2 mps 747 mmHg 43%
    05:00 +13°C° 0 mm 1 mps 747 mmHg 39%
    06:00 +15°C° 0 mm 1 mps 747 mmHg 35%
    07:00 +18°C° 0 mm 1 mps 748 mmHg 31%
    08:00 +20°C° 0 mm 1 mps 748 mmHg 30%
    09:00 +21°C° 0 mm 2 mps 748 mmHg 29%
    10:00 +24°C° 0 mm 2 mps 748 mmHg 29%
    11:00 +24°C° 0 mm 3 mps 748 mmHg 26%
    12:00 +25°C° 0 mm 4 mps 748 mmHg 24%
    13:00 +26°C° 0 mm 4 mps 748 mmHg 22%
    14:00 +26°C° 0 mm 4 mps 747 mmHg 22%
    15:00 +26°C° 0 mm 5 mps 747 mmHg 23%
    16:00 +26°C° 0 mm 5 mps 747 mmHg 24%
    17:00 +22°C° 0 mm 4 mps 747 mmHg 30%
    18:00 +20°C° 0 mm 3 mps 748 mmHg 37%
    19:00 +18°C° 0 mm 3 mps 748 mmHg 44%
    20:00 +17°C° 0 mm 3 mps 748 mmHg 46%
    21:00 +17°C° 0 mm 3 mps 748 mmHg 49%
    22:00 +16°C° 0 mm 3 mps 748 mmHg 51%
    23:00 +14°C° 0 mm 3 mps 748 mmHg 51%

    25 September, Wednesday

    Time Temperature Precipitation Wind Pressure Humidity
    00:00 +15°C° 0 mm 2 mps 748 mmHg 52%
    01:00 +14°C° 0 mm 2 mps 748 mmHg 53%
    02:00 +14°C° 0 mm 2 mps 748 mmHg 52%
    03:00 +13°C° 0 mm 2 mps 749 mmHg 51%
    04:00 +13°C° 0 mm 2 mps 749 mmHg 50%
    05:00 +15°C° 0 mm 2 mps 749 mmHg 45%
    06:00 +16°C° 0 mm 3 mps 749 mmHg 39%
    07:00 +18°C° 0 mm 3 mps 749 mmHg 34%
    08:00 +20°C° 0 mm 3 mps 749 mmHg 29%
    09:00 +21°C° 0 mm 3 mps 749 mmHg 25%
    10:00 +23°C° 0 mm 4 mps 749 mmHg 20%
    11:00 +25°C° 0 mm 4 mps 749 mmHg 18%
    12:00 +26°C° 0 mm 4 mps 748 mmHg 16%
    13:00 +27°C° 0 mm 4 mps 748 mmHg 14%
    14:00 +27°C° 0 mm 5 mps 747 mmHg 14%
    15:00 +27°C° 0 mm 5 mps 747 mmHg 15%
    16:00 +26°C° 0 mm 6 mps 747 mmHg 15%
    17:00 +23°C° 0 mm 6 mps 747 mmHg 18%
    18:00 +21°C° 0 mm 6 mps 747 mmHg 20%
    19:00 +18°C° 0 mm 7 mps 747 mmHg 22%
    20:00 +19°C° 0 mm 6 mps 747 mmHg 22%
    21:00 +17°C° 0 mm 5 mps 746 mmHg 22%
    22:00 +16°C° 0 mm 5 mps 746 mmHg 23%
    23:00 +17°C° 0 mm 4 mps 746 mmHg 24%
    Show more